Date String (YYYY-MM-DD hh:mm:ss) UTC,Instrument flags,Ambient pressure (hPa),Sample flow (lpm),Bypass flow (lpm),Sample temperature (°C),Ambient temperature (°C),ASC tube jacket temperature (°C),LED temperature (°C),Box temperature (°C),Sample RH (%),Span deviation,Mass concentration (μg/m³),Mass concentration (μg/m³),Mass concentration (μg/m³)
DateTimeUTC,F1_M11,P_M11,Q1_M11,Q2_M11,T1_M11,T2_M11,T3_M11,T4_M11,T5_M11,U1_M11,ZSPAN_M11,X0_M11,X2_M11,X1_M11
2022-10-08 02:00:00,,0836.8,5.00,0.00,26.3,24.9,00.0,35.1,28.2,22.9,-000.5,0014.67,0009.33,0008.84
2022-10-08 02:01:00,,0836.7,5.00,0.00,26.3,24.9,00.0,35.1,28.2,22.9,-000.4,0014.88,0009.35,0008.84
2022-10-08 02:02:00,,0836.7,5.00,0.00,26.3,24.9,00.0,35.1,28.2,22.9,-000.5,0015.53,0009.33,0008.83
2022-10-08 02:03:00,,0836.7,5.00,0.00,26.3,24.9,00.0,35.1,28.2,23.0,-000.6,0015.58,0009.33,0008.84
2022-10-08 02:04:00,,0836.7,5.00,0.00,26.3,24.8,00.0,35.1,28.2,23.0,-000.6,0015.60,0009.33,0008.83
2022-10-08 02:05:00,,0836.6,5.01,0.00,26.3,24.8,00.0,35.1,28.1,23.1,-000.7,0015.66,0009.32,0008.81
2022-10-08 02:06:00,,0836.6,4.99,0.00,26.3,24.7,00.0,35.1,28.1,23.3,-000.6,0015.64,0009.30,0008.77
2022-10-08 02:07:00,,0836.6,5.00,0.00,26.2,24.7,00.0,35.1,28.1,23.3,-000.8,0015.10,0009.31,0008.74
2022-10-08 02:08:00,,0836.6,5.00,0.00,26.2,24.7,00.0,35.1,28.1,23.3,-000.9,0014.17,0009.27,0008.71
2022-10-08 02:09:00,,0836.6,5.01,0.00,26.2,24.7,00.0,35.1,28.1,23.3,-001.0,0013.98,0009.25,0008.70
2022-10-08 02:10:00,,0836.6,5.00,0.00,26.2,24.8,00.0,35.1,28.1,23.3,-001.1,0013.87,0009.21,0008.68
2022-10-08 02:11:00,,0836.6,5.00,0.00,26.2,24.8,00.0,35.1,28.1,23.3,-001.3,0013.85,0009.19,0008.65
2022-10-08 02:12:00,,0836.7,5.00,0.00,26.2,24.8,00.0,35.1,28.1,23.3,-001.3,0013.87,0009.18,0008.65
2022-10-08 02:13:00,,0836.7,5.00,0.00,26.3,24.8,00.0,35.1,28.1,23.3,-001.4,0013.33,0009.16,0008.63
2022-10-08 02:14:00,,0836.7,5.00,0.00,26.3,24.9,00.0,35.1,28.2,23.3,-001.4,0013.53,0009.13,0008.58
2022-10-08 02:15:00,,0836.8,5.00,0.00,26.3,24.9,00.0,35.1,28.1,23.3,-001.5,0013.64,0009.12,0008.56
2022-10-08 02:16:00,,0836.8,5.00,0.00,26.3,24.9,00.0,35.1,28.2,23.3,-001.7,0013.55,0009.07,0008.55
2022-10-08 02:17:00,,0836.8,5.01,0.00,26.3,24.9,00.0,35.1,28.2,23.3,-001.7,0013.70,0009.09,0008.56
2022-10-08 02:18:00,,0836.8,5.00,0.00,26.3,24.9,00.0,35.1,28.2,23.3,-001.7,0013.81,0009.06,0008.56
2022-10-08 02:19:00,,0836.9,5.00,0.00,26.3,24.9,00.0,35.1,28.2,23.3,-001.6,0013.73,0009.02,0008.54
2022-10-08 02:20:00,,0836.9,5.00,0.00,26.3,24.9,00.0,35.1,28.2,23.3,-001.6,0013.68,0009.01,0008.54
2022-10-08 02:21:00,,0836.8,5.00,0.00,26.3,24.9,00.0,35.1,28.2,23.3,-001.6,0013.74,0008.99,0008.52
2022-10-08 02:22:00,,0836.8,5.00,0.00,26.3,24.9,00.0,35.1,28.2,23.3,-001.4,0013.74,0009.03,0008.54
2022-10-08 02:23:00,,0836.8,5.01,0.00,26.3,24.9,00.0,35.1,28.2,23.3,-001.5,0013.44,0009.05,0008.54
2022-10-08 02:24:00,,0836.9,5.00,0.00,26.3,24.9,00.0,35.1,28.3,23.3,-001.7,0013.57,0009.08,0008.55
2022-10-08 02:25:00,,0836.9,5.00,0.00,26.3,24.9,00.0,35.1,28.3,23.3,-001.8,0013.32,0009.09,0008.57
2022-10-08 02:26:00,,0836.8,4.99,0.00,26.3,24.9,00.0,35.1,28.2,23.4,-001.9,0013.07,0009.07,0008.58
2022-10-08 02:27:00,,0836.9,5.01,0.00,26.3,24.9,00.0,35.1,28.3,23.4,-001.5,0013.07,0009.11,0008.62
2022-10-08 02:28:00,,0836.9,5.00,0.00,26.4,24.9,00.0,35.1,28.3,23.5,-001.5,0013.13,0009.16,0008.66
2022-10-08 02:29:00,,0837.0,5.00,0.00,26.4,24.9,00.0,35.1,28.3,24.5,-001.5,0013.01,0009.20,0008.67
2022-10-08 02:30:00,,0836.9,4.99,0.00,26.4,24.9,00.0,35.1,28.3,25.0,-001.6,0013.15,0009.26,0008.70
2022-10-08 02:31:00,,0836.9,5.00,0.00,26.4,24.9,00.0,35.1,28.3,23.9,-001.8,0013.19,0009.23,0008.70
2022-10-08 02:32:00,,0836.9,5.01,0.00,26.4,25.0,00.0,35.1,28.3,23.7,-002.2,0013.10,0009.22,0008.70
2022-10-08 02:33:00,,0836.9,5.00,0.00,26.4,25.0,00.0,35.1,28.3,23.6,-002.3,0013.03,0009.23,0008.73
2022-10-08 02:34:00,,0836.9,4.99,0.00,26.4,24.9,00.0,35.1,28.3,23.6,-002.5,0012.89,0009.23,0008.75
2022-10-08 02:35:00,,0836.9,5.00,0.00,26.4,25.0,00.0,35.1,28.3,23.6,-002.2,0012.98,0009.22,0008.77
2022-10-08 02:36:00,,0836.9,5.00,0.00,26.4,25.0,00.0,35.1,28.3,23.6,-002.2,0013.04,0009.24,0008.78
2022-10-08 02:37:00,,0836.9,5.00,0.00,26.4,25.0,00.0,35.1,28.3,23.5,-002.0,0013.05,0009.27,0008.79
2022-10-08 02:38:00,,0837.0,5.00,0.00,26.4,25.0,00.0,35.1,28.3,23.5,-002.0,0013.14,0009.31,0008.81
2022-10-08 02:39:00,,0837.0,5.01,0.00,26.4,25.0,00.0,35.1,28.3,23.5,-002.1,0013.19,0009.31,0008.79
2022-10-08 02:40:00,,0837.0,5.00,0.00,26.4,24.9,00.0,35.1,28.3,23.5,-002.1,0013.22,0009.29,0008.78
2022-10-08 02:41:00,,0837.0,5.00,0.00,26.4,24.9,00.0,35.1,28.3,23.5,-002.0,0013.24,0009.27,0008.79
2022-10-08 02:42:00,,0837.0,4.99,0.00,26.4,25.0,00.0,35.1,28.3,23.4,-001.7,0013.20,0009.33,0008.81
2022-10-08 02:43:00,,0837.0,4.99,0.00,26.4,25.0,00.0,35.1,28.3,23.4,-001.5,0013.30,0009.37,0008.82
2022-10-08 02:44:00,,0837.0,5.02,0.00,26.4,25.0,00.0,35.1,28.3,23.4,-001.4,0013.22,0009.36,0008.80
2022-10-08 02:45:00,,0837.1,4.99,0.00,26.4,25.0,00.0,35.1,28.3,23.4,-001.5,0013.26,0009.38,0008.78
2022-10-08 02:46:00,,0837.1,4.99,0.00,26.4,25.0,00.0,35.1,28.3,23.4,-001.4,0013.09,0009.35,0008.76
2022-10-08 02:47:00,,0837.1,5.00,0.00,26.4,25.0,00.0,35.2,28.3,23.4,-001.3,0012.89,0009.33,0008.75
2022-10-08 02:48:00,,0837.1,5.01,0.00,26.4,25.0,00.0,35.2,28.3,23.4,-001.5,0012.88,0009.30,0008.72
2022-10-08 02:49:00,,0837.1,5.00,0.00,26.4,25.0,00.0,35.2,28.3,23.4,-001.8,0012.87,0009.29,0008.70
2022-10-08 02:50:00,,0837.1,4.99,0.00,26.4,25.0,00.0,35.2,28.3,23.4,-001.7,0012.77,0009.25,0008.68
2022-10-08 02:51:00,,0837.1,5.00,0.00,26.4,25.0,00.0,35.2,28.3,23.3,-001.7,0012.70,0009.23,0008.68
2022-10-08 02:52:00,,0837.1,5.01,0.00,26.4,25.0,00.0,35.2,28.3,23.3,-001.9,0012.53,0009.24,0008.68
2022-10-08 02:53:00,,0837.1,5.00,0.00,26.4,25.0,00.0,35.2,28.3,23.3,-002.0,0012.35,0009.16,0008.64
2022-10-08 02:54:00,,0837.1,5.00,0.00,26.4,25.0,00.0,35.2,28.3,23.3,-001.8,0012.29,0009.15,0008.63
2022-10-08 02:55:00,,0837.1,4.99,0.00,26.4,25.0,00.0,35.2,28.3,23.3,-001.8,0012.50,0009.19,0008.63
2022-10-08 02:56:00,,0837.1,5.00,0.00,26.4,25.0,00.0,35.2,28.3,23.3,-001.7,0012.72,0009.15,0008.65
2022-10-08 02:57:00,,0837.1,5.01,0.00,26.4,25.0,00.0,35.2,28.4,23.3,-001.9,0012.74,0009.15,0008.66
2022-10-08 02:58:00,,0837.1,4.99,0.00,26.4,25.0,00.0,35.2,28.3,23.3,-001.9,0012.85,0009.17,0008.67
2022-10-08 02:59:00,,0837.1,5.00,0.00,26.4,25.0,00.0,35.2,28.3,23.2,-001.8,0013.19,0009.22,0008.69
